Weather in Wisbech

United Kingdom     52°40′11″N   0°10′08″E
temp.,
°C
wind,
m/s
gust,
m/s
humid.,
%
clouds,
%
prec.,
mm/h
press.,
hPa
HPBL,
m
13 april, tue
tue1301:000ssw34825 0.0 103259
04:00−1sw34790 0.0 103262
07:000wnw35741 0.0 1032117
10:00+6w23565 0.0 1033496
13:00+9nnw23469 0.0 10331504
16:00+9nw345079 0.0 10311505
19:00+7ne23665 0.0 103139
22:00+3ese22685 0.0 103328
14 april, wed
wed1401:00+2ese2270100 0.0 103318
04:00+4nne3477100 0.1 1033209
07:00+2n34905 0.4 1033107
10:00+7nne56645 0.0 10341085
13:00+8nne676129 0.1 10341282
16:00+7nne67595 0.0 10341020
19:00+5nne57683 0.0 1034513
22:00+3ne35795 0.0 1034121
15 april, thu
thu1501:00+3nne35835 0.0 1034102
04:00+2n47875 0.0 1034165
07:00+3nnw598613 0.0 1034305
10:00+7ne78699 0.3 10341283
13:00+9ne675662 0.4 10341589
16:00+9ne675426 0.1 10331272
19:00+6ne576651 0.1 1033384
22:00+3ene477956 0.0 1034149
16 april, fri
fri1601:00+2ene35825 0.0 103395
04:00+2ene35795 0.0 103383
07:00+2ne34760 0.0 103391
10:00+8ne55565 0.0 10331058
13:00+9nne665624 0.0 10321268
16:00+9nne66574 0.0 1032993
19:00+6ne57715 0.0 1032455
22:00+3ne368265 0.0 1032118
17 april, sat
sat1701:00+3nne35845 0.0 103188
04:00+3nne34875 0.0 103176
07:00+4nne358410 0.0 1030140
10:00+8ne45645 0.0 1030875
13:00+10nne55585 0.0 10281142
16:00+10nne66625 0.0 1027837
19:00+7ne46750 0.0 1027259
22:00+4ene35900 0.0 102775